Home > Weather > Cairo > Past weeks

Flag for Egypt Past Weather in Cairo, Egypt — Yesterday and Last 2 Weeks

Now
77 °F

Fog.


Feels Like: 78 °F
Forecast: 75 / 100 °F
Wind: 8 mph from North

Location: Cairo Airport

Current Time: Jul 29, 2016 at 6:15:54 AM

Latest Report: Jul 29, 2016 at 5:30 AM


Visibility: 1 mi

Pressure: 29.74 "Hg

Humidity: 83%

Dew Point: 72 °F

Location of CairoLocation

Past Weather in Cairo — Graph

°F

Cairo Temperature Yesterday

Maximum temperature yesterday: 93 °F (at 2:30 PM)
Minimum temperature yesterday: 77 °F (at 1:00 AM)
Average temperature yesterday: 84 °F

High & Low Weather Summary for the Past Weeks

 TemperatureHumidityPressure
High99 °F (Jul 14, 2:00 PM)100% (Jul 19, 10:00 PM)29.92 "Hg (Jul 19, 10:00 PM)
Low75 °F (Jul 19, 4:00 AM)18% (Jul 15, 1:00 PM)29.65 "Hg (Jul 19, 3:00 PM)
Average86 °F55%29.78 "Hg
* Reported Jul 14 5:00 AM — Jul 29 5:00 AM, Cairo, Weather by CustomWeather, © 2016

Note: Actual official high and low records may vary slightly from our data, if they occured in-between our weather recording intervals... More about our weather records

Advertising

Cairo Weather History for the Previous 24 Hours

Scroll right to see more
 ConditionsComfort  
Time TempWeatherWind HumidityBarometerVisibility
5:00 AM
Fri, Jul 29
77 °FClear.9 mph83%29.74 "Hg4 mi
4:30 AM77 °FClear.10 mph83%29.74 "Hg10 mi
4:00 AM79 °FClear.10 mph74%29.74 "Hg10 mi
3:30 AM79 °FClear.12 mph74%29.74 "Hg10 mi
3:00 AM79 °FClear.12 mph74%29.74 "Hg10 mi
2:00 AM79 °FClear.9 mph74%29.74 "Hg10 mi
1:30 AM79 °FClear.10 mph74%29.74 "Hg4 mi
1:00 AM79 °FClear.10 mph84%29.74 "Hg4 mi
12:30 AM79 °FClear.9 mph84%29.74 "Hg4 mi
12:00 AM79 °FClear.10 mph84%29.74 "Hg4 mi
11:30 PM
Thu, Jul 28
81 °FClear.12 mph74%29.77 "Hg4 mi
11:00 PM81 °FClear.13 mph74%29.77 "Hg10 mi
10:00 PM82 °FClear.12 mph70%29.77 "Hg10 mi
9:30 PM84 °FClear.12 mph62%29.77 "Hg10 mi
9:00 PM84 °FClear.10 mph62%29.77 "Hg10 mi
8:30 PM86 °FClear.12 mph59%29.74 "Hg10 mi
8:00 PM86 °FClear.13 mph59%29.74 "Hg10 mi
7:30 PM86 °FClear.13 mph59%29.74 "Hg10 mi
7:00 PM88 °FClear.15 mph55%29.74 "Hg10 mi
6:30 PM88 °FSunny.13 mph55%29.74 "Hg10 mi
6:00 PM90 °FSunny.13 mph52%29.71 "Hg10 mi
5:30 PM91 °FSunny.13 mph49%29.71 "Hg10 mi
5:00 PM91 °FSunny.16 mph46%29.71 "Hg10 mi
4:30 PM93 °FSunny.13 mph44%29.71 "Hg10 mi
4:00 PM93 °FSunny.13 mph44%29.71 "Hg10 mi
3:30 PM93 °FSunny.13 mph47%29.74 "Hg10 mi
3:00 PM93 °FSunny.14 mph44%29.74 "Hg10 mi
2:30 PM93 °FSunny.10 mph44%29.74 "Hg10 mi
2:00 PM91 °FSunny.10 mph44%29.74 "Hg10 mi
1:30 PM91 °FSunny.12 mph46%29.74 "Hg10 mi
1:00 PM90 °FSunny.12 mph49%29.77 "Hg10 mi
12:30 PM90 °FSunny.10 mph49%29.77 "Hg10 mi
12:00 PM88 °FSunny.10 mph52%29.77 "Hg10 mi
11:30 AM86 °FScattered clouds.9 mph59%29.80 "HgN/A
11:00 AM86 °FScattered clouds.9 mph59%29.80 "HgN/A
10:30 AM86 °FScattered clouds.8 mph59%29.80 "HgN/A
10:00 AM86 °FScattered clouds.8 mph59%29.80 "HgN/A
9:30 AM82 °FScattered clouds.7 mph66%29.80 "HgN/A
9:00 AM82 °FScattered clouds.7 mph66%29.80 "HgN/A
8:30 AM81 °FPartly sunny.10 mph70%29.80 "HgN/A
8:00 AM81 °FPartly sunny.10 mph70%29.80 "HgN/A
7:30 AM79 °FPartly sunny.8 mph74%29.80 "HgN/A
7:00 AM79 °FPartly sunny.N/A74%29.80 "HgN/A
6:30 AM77 °FPartly sunny.6 mph79%29.80 "HgN/A
6:00 AM77 °FPartly sunny.6 mph79%29.80 "HgN/A
Weather by CustomWeather, © 2016

See weather overviewHow to use our weather pages